Location: Newark
(47.5347°N, 5.5339°E)
Time: 12:40:05
(UTC+00:00)

ISS - Pass Details

Date: 23 September 2019
Orbit: 411 x 421 km, 51.6° (Epoch: 16 October)

Event Time Altitude Azimuth Distance (km) Brightness Sun altitude
Rises 18:33:21 0° 238° (WSW) 2,335 0.8 -10.7°
Reaches altitude 10° 18:35:26 10° 236° (SW) 1,476 -0.3 -11.1°
Maximum altitude 18:38:44 71° 152° (SSE) 438 -3.8 -11.6°
Enters shadow 18:41:14 16° 70° (ENE) 1,159 -2.0 -12.0°
